SWA3386 KDAL-KDCA

Flight info

Callsign SWA3386
Flight time 2h 7m
Altitude 39000
Route EMMTT4 LOOSE Q34 SITTR TRUPS5
Aircraft B737/M-SADE2E3GIJ4RWZ/LB1D1

Departure

Time 2026-05-07 00:59
Airport Dallas Love Field (KDAL)

Arrival

Time 2026-05-07 03:07
Airport Ronald Reagan Washington National Airport (KDCA)
Time Latitude Longitude Altitude Speed Heading
2026-05-07 00:41 32.84568 -96.84831 483 ft 0 kts
2026-05-07 00:54 32.84566 -96.84831 476 ft 2 kts
2026-05-07 00:55 32.84543 -96.84831 483 ft 1 kts
2026-05-07 00:55 32.84519 -96.84832 482 ft 3 kts
2026-05-07 00:55 32.84514 -96.84832 477 ft 0 kts
2026-05-07 00:56 32.84515 -96.84831 477 ft 1 kts
2026-05-07 00:57 32.84518 -96.84807 479 ft 6 kts 100°
2026-05-07 00:57 32.84509 -96.84707 483 ft 18 kts 91°
2026-05-07 00:57 32.84520 -96.84559 483 ft 21 kts 153°
2026-05-07 00:57 32.84392 -96.84441 483 ft 23 kts 134°
2026-05-07 00:58 32.84278 -96.84309 482 ft 22 kts 135°
2026-05-07 00:58 32.84168 -96.84180 481 ft 22 kts 136°
2026-05-07 00:58 32.84108 -96.84057 480 ft 17 kts 60°
2026-05-07 00:58 32.84201 -96.83951 490 ft 19 kts 19°
2026-05-07 00:59 32.84779 -96.84581 481 ft 125 kts 316°
2026-05-07 00:59 32.85532 -96.85449 736 ft 159 kts 317°
2026-05-07 00:59 32.86276 -96.86357 1650 ft 156 kts 318°
2026-05-07 01:00 32.87131 -96.87328 1979 ft 188 kts 317°
2026-05-07 01:00 32.88088 -96.88483 2460 ft 206 kts 316°
2026-05-07 01:00 32.89104 -96.89709 3177 ft 204 kts 317°
2026-05-07 01:00 32.90196 -96.90791 4050 ft 213 kts 335°
2026-05-07 01:01 32.91727 -96.91036 4583 ft 235 kts 13°
2026-05-07 01:01 32.93254 -96.90128 5352 ft 251 kts 33°
2026-05-07 01:01 32.94689 -96.88939 6485 ft 258 kts 36°
2026-05-07 01:01 32.95883 -96.87167 6873 ft 293 kts 70°
2026-05-07 01:02 32.96117 -96.84789 8107 ft 290 kts 89°
2026-05-07 01:02 32.96239 -96.82350 9039 ft 301 kts 85°
2026-05-07 01:02 32.96463 -96.79827 9928 ft 310 kts 85°
2026-05-07 01:02 32.96454 -96.77209 10640 ft 325 kts 99°
2026-05-07 01:03 32.96096 -96.74533 11329 ft 338 kts 104°
2026-05-07 01:03 32.95629 -96.71755 12190 ft 345 kts 105°
2026-05-07 01:03 32.95145 -96.68922 13044 ft 353 kts 105°
2026-05-07 01:03 32.94665 -96.66020 13870 ft 361 kts 105°
2026-05-07 01:04 32.94195 -96.63059 14717 ft 367 kts 105°
2026-05-07 01:04 32.93729 -96.60030 15552 ft 374 kts 105°
2026-05-07 01:04 32.93264 -96.56957 16378 ft 380 kts 105°
2026-05-07 01:04 32.92796 -96.53836 17162 ft 387 kts 105°
2026-05-07 01:05 32.92319 -96.50653 17951 ft 393 kts 106°
2026-05-07 01:05 32.91835 -96.47426 18707 ft 399 kts 106°
2026-05-07 01:05 32.91344 -96.44153 19448 ft 406 kts 106°
2026-05-07 01:05 32.90849 -96.40862 20187 ft 411 kts 106°
2026-05-07 01:06 32.90342 -96.37499 20913 ft 416 kts 106°
2026-05-07 01:06 32.89983 -96.34043 21582 ft 430 kts 92°
2026-05-07 01:06 32.90505 -96.30503 22254 ft 441 kts 71°
2026-05-07 01:06 32.91582 -96.27067 22945 ft 446 kts 69°
2026-05-07 01:07 32.92748 -96.23604 23528 ft 453 kts 68°
2026-05-07 01:07 32.93943 -96.20105 24136 ft 459 kts 68°
2026-05-07 01:07 32.95137 -96.16562 24762 ft 464 kts 68°
2026-05-07 01:07 32.96327 -96.12967 25358 ft 469 kts 69°
2026-05-07 01:08 32.97516 -96.09322 25947 ft 474 kts 69°
2026-05-07 01:08 32.98707 -96.05635 26491 ft 480 kts 69°
2026-05-07 01:08 32.99909 -96.01900 27031 ft 485 kts 70°
2026-05-07 01:08 33.01119 -95.98133 27543 ft 490 kts 70°
2026-05-07 01:09 33.02345 -95.94319 28067 ft 495 kts 70°
2026-05-07 01:09 33.03578 -95.90480 28568 ft 499 kts 70°
2026-05-07 01:09 33.04825 -95.86596 29043 ft 504 kts 70°
2026-05-07 01:09 33.06083 -95.82676 29518 ft 508 kts 70°
2026-05-07 01:10 33.07338 -95.78764 29966 ft 513 kts 70°
2026-05-07 01:10 33.08620 -95.74773 30406 ft 517 kts 70°
2026-05-07 01:10 33.09909 -95.70753 30833 ft 521 kts 70°
2026-05-07 01:10 33.11205 -95.66703 31230 ft 526 kts 70°
2026-05-07 01:11 33.12518 -95.62598 31581 ft 531 kts 70°
2026-05-07 01:11 33.13838 -95.58467 31927 ft 535 kts 70°
2026-05-07 01:11 33.15169 -95.54295 32296 ft 539 kts 70°
2026-05-07 01:11 33.16504 -95.50102 32645 ft 543 kts 70°
2026-05-07 01:12 33.17849 -95.45874 32965 ft 547 kts 70°
2026-05-07 01:12 33.19204 -95.41609 33269 ft 550 kts 70°
2026-05-07 01:12 33.20567 -95.37311 33553 ft 554 kts 69°
2026-05-07 01:12 33.21932 -95.33003 33841 ft 558 kts 70°
2026-05-07 01:13 33.23305 -95.28662 34191 ft 559 kts 70°
2026-05-07 01:13 33.24677 -95.24314 34624 ft 557 kts 70°
2026-05-07 01:13 33.26042 -95.19983 35050 ft 556 kts 69°
2026-05-07 01:13 33.27405 -95.15655 35418 ft 556 kts 69°
2026-05-07 01:14 33.28769 -95.11318 35761 ft 556 kts 69°
2026-05-07 01:14 33.30109 -95.07053 36119 ft 555 kts 69°
2026-05-07 01:14 33.31464 -95.02731 36482 ft 555 kts 69°
2026-05-07 01:14 33.32818 -94.98411 36744 ft 556 kts 69°
2026-05-07 01:15 33.34176 -94.94066 37062 ft 556 kts 69°
2026-05-07 01:15 33.35525 -94.89743 37476 ft 553 kts 69°
2026-05-07 01:15 33.36863 -94.85448 37888 ft 549 kts 69°
2026-05-07 01:15 33.38197 -94.81163 38200 ft 548 kts 69°
2026-05-07 01:16 33.39529 -94.76882 38405 ft 550 kts 69°
2026-05-07 01:16 33.40864 -94.72582 38569 ft 552 kts 69°
2026-05-07 01:16 33.42204 -94.68263 38803 ft 552 kts 68°
2026-05-07 01:16 33.43538 -94.63954 39020 ft 553 kts 68°
2026-05-07 01:17 33.44882 -94.59606 39049 ft 559 kts 68°
2026-05-07 01:17 33.47586 -94.50842 39065 ft 569 kts 69°
2026-05-07 01:18 33.50352 -94.41847 39060 ft 579 kts 69°
2026-05-07 01:18 33.53144 -94.32738 39047 ft 582 kts 69°
2026-05-07 01:19 33.55934 -94.23601 39044 ft 584 kts 69°
2026-05-07 01:19 33.58680 -94.14410 39045 ft 586 kts 69°
2026-05-07 01:20 33.61392 -94.05242 39047 ft 586 kts 69°
2026-05-07 01:20 33.64116 -93.96027 39043 ft 586 kts 69°
2026-05-07 01:21 33.66836 -93.86821 39045 ft 584 kts 69°
2026-05-07 01:21 33.69542 -93.77637 39044 ft 582 kts 69°
2026-05-07 01:22 33.72235 -93.68469 39032 ft 581 kts 69°
2026-05-07 01:22 33.74913 -93.59322 39036 ft 580 kts 69°
2026-05-07 01:23 33.77574 -93.50193 39035 ft 578 kts 69°
2026-05-07 01:23 33.80226 -93.41070 39034 ft 577 kts 69°
2026-05-07 01:24 33.82850 -93.32020 39045 ft 575 kts 70°
2026-05-07 01:24 33.85475 -93.22936 39046 ft 574 kts 70°
2026-05-07 01:25 33.88071 -93.13870 39051 ft 571 kts 70°
2026-05-07 01:25 33.90797 -93.04899 39044 ft 570 kts 65°
2026-05-07 01:26 33.94068 -92.96225 39052 ft 569 kts 62°
2026-05-07 01:26 33.97414 -92.87593 39046 ft 568 kts 63°
2026-05-07 01:27 34.00661 -92.78910 39042 ft 568 kts 64°
2026-05-07 01:27 34.03856 -92.70220 39051 ft 574 kts 63°
2026-05-07 01:28 34.07133 -92.61358 39054 ft 579 kts 63°
2026-05-07 01:28 34.10469 -92.52518 39040 ft 578 kts 63°
2026-05-07 01:29 34.13214 -92.45160 39041 ft 577 kts 63°
2026-05-07 01:29 34.16489 -92.36311 39033 ft 576 kts 63°
2026-05-07 01:30 34.19763 -92.27476 39036 ft 575 kts 63°
2026-05-07 01:30 34.23023 -92.18651 39042 ft 574 kts 63°
2026-05-07 01:31 34.26266 -92.09841 39042 ft 572 kts 64°
2026-05-07 01:31 34.29488 -92.01060 39044 ft 571 kts 64°
2026-05-07 01:32 34.32705 -91.92271 39046 ft 571 kts 64°
2026-05-07 01:32 34.35894 -91.83533 39048 ft 571 kts 64°
2026-05-07 01:33 34.39095 -91.74745 39046 ft 571 kts 64°
2026-05-07 01:33 34.42299 -91.65925 39044 ft 571 kts 64°
2026-05-07 01:34 34.45495 -91.57096 39043 ft 572 kts 64°
2026-05-07 01:34 34.48668 -91.48309 39047 ft 573 kts 64°
2026-05-07 01:35 34.51863 -91.39437 39051 ft 574 kts 64°
2026-05-07 01:35 34.55060 -91.30533 39049 ft 575 kts 64°
2026-05-07 01:36 34.58251 -91.21625 39045 ft 576 kts 64°
2026-05-07 01:36 34.61444 -91.12684 39045 ft 577 kts 64°
2026-05-07 01:37 34.64633 -91.03729 39040 ft 578 kts 64°
2026-05-07 01:37 34.67811 -90.94776 39034 ft 578 kts 64°
2026-05-07 01:38 34.70992 -90.85796 39039 ft 578 kts 64°
2026-05-07 01:38 34.74160 -90.76826 39039 ft 577 kts 64°
2026-05-07 01:39 34.77316 -90.67861 39035 ft 577 kts 64°
2026-05-07 01:39 34.80466 -90.58886 39037 ft 576 kts 64°
2026-05-07 01:40 34.83582 -90.49986 39036 ft 575 kts 64°
2026-05-07 01:40 34.86713 -90.41017 39035 ft 575 kts 64°
2026-05-07 01:41 34.89838 -90.32041 39037 ft 574 kts 64°
2026-05-07 01:41 34.92953 -90.23065 39035 ft 574 kts 64°
2026-05-07 01:42 34.96038 -90.14152 39027 ft 574 kts 65°
2026-05-07 01:42 34.99136 -90.05173 39028 ft 575 kts 65°
2026-05-07 01:43 35.02237 -89.96182 39030 ft 575 kts 64°
2026-05-07 01:43 35.05429 -89.87234 39028 ft 575 kts 63°
2026-05-07 01:44 35.08669 -89.78270 39027 ft 576 kts 63°
2026-05-07 01:44 35.11884 -89.69301 39032 ft 577 kts 64°
2026-05-07 01:45 35.15087 -89.60296 39030 ft 578 kts 64°
2026-05-07 01:45 35.18283 -89.51276 39029 ft 579 kts 64°
2026-05-07 01:46 35.21478 -89.42244 39012 ft 580 kts 64°
2026-05-07 01:46 35.24675 -89.33169 39032 ft 580 kts 64°
2026-05-07 01:47 35.27863 -89.24102 39028 ft 580 kts 64°
2026-05-07 01:47 35.31028 -89.15078 39004 ft 581 kts 64°
2026-05-07 01:48 35.34206 -89.05985 39017 ft 581 kts 64°
2026-05-07 01:48 35.37384 -88.96878 39029 ft 581 kts 64°
2026-05-07 01:49 35.40553 -88.87776 39035 ft 581 kts 64°
2026-05-07 01:49 35.43715 -88.78663 39036 ft 581 kts 64°
2026-05-07 01:50 35.46875 -88.69523 39040 ft 581 kts 64°
2026-05-07 01:50 35.50030 -88.60377 39033 ft 581 kts 64°
2026-05-07 01:51 35.53176 -88.51226 39034 ft 582 kts 64°
2026-05-07 01:51 35.56295 -88.42129 39039 ft 582 kts 64°
2026-05-07 01:52 35.59436 -88.32947 39039 ft 582 kts 64°
2026-05-07 01:52 35.62566 -88.23771 39044 ft 582 kts 64°
2026-05-07 01:53 35.65687 -88.14591 39050 ft 583 kts 63°
2026-05-07 01:53 35.68812 -88.05374 39047 ft 584 kts 63°
2026-05-07 01:54 35.71930 -87.96145 39047 ft 584 kts 64°
2026-05-07 01:54 35.75049 -87.86884 39048 ft 585 kts 64°
2026-05-07 01:55 35.78162 -87.77617 39037 ft 586 kts 64°
2026-05-07 01:55 35.81232 -87.68390 39034 ft 586 kts 64°
2026-05-07 01:56 35.84297 -87.59088 39040 ft 585 kts 64°
2026-05-07 01:56 35.87352 -87.49792 39034 ft 585 kts 64°
2026-05-07 01:57 35.90401 -87.40497 39041 ft 584 kts 64°
2026-05-07 01:57 35.93446 -87.31186 39034 ft 584 kts 64°
2026-05-07 01:58 35.96475 -87.21897 39036 ft 583 kts 64°
2026-05-07 01:58 35.99491 -87.12617 39040 ft 582 kts 65°
2026-05-07 01:59 36.02495 -87.03344 39016 ft 581 kts 64°
2026-05-07 01:59 36.05492 -86.94067 39028 ft 581 kts 64°
2026-05-07 02:00 36.08480 -86.84786 39043 ft 581 kts 64°
2026-05-07 02:00 36.11452 -86.75527 39056 ft 582 kts 64°
2026-05-07 02:01 36.14432 -86.66217 39074 ft 582 kts 64°
2026-05-07 02:01 36.17445 -86.56926 39080 ft 582 kts 64°
2026-05-07 02:02 36.20475 -86.47613 39073 ft 582 kts 64°
2026-05-07 02:02 36.23487 -86.38306 39058 ft 583 kts 64°
2026-05-07 02:03 36.26492 -86.28971 39054 ft 582 kts 64°
2026-05-07 02:03 36.29464 -86.19696 39054 ft 582 kts 64°
2026-05-07 02:04 36.32447 -86.10358 39060 ft 581 kts 64°
2026-05-07 02:04 36.35415 -86.01047 39065 ft 581 kts 64°
2026-05-07 02:05 36.38381 -85.91710 39056 ft 581 kts 64°
2026-05-07 02:05 36.41341 -85.82367 39045 ft 581 kts 65°
2026-05-07 02:06 36.44292 -85.73022 39027 ft 581 kts 65°
2026-05-07 02:06 36.47233 -85.63669 39030 ft 581 kts 65°
2026-05-07 02:07 36.50163 -85.54320 39032 ft 581 kts 65°
2026-05-07 02:07 36.54536 -85.40320 39033 ft 581 kts 65°
2026-05-07 02:08 36.57452 -85.30945 39029 ft 581 kts 65°
2026-05-07 02:08 36.60366 -85.21548 39032 ft 581 kts 65°
2026-05-07 02:09 36.63269 -85.12153 39039 ft 581 kts 65°
2026-05-07 02:09 36.66161 -85.02759 39041 ft 581 kts 65°
2026-05-07 02:10 36.69033 -84.93401 39039 ft 582 kts 65°
2026-05-07 02:10 36.71918 -84.83966 39043 ft 582 kts 65°
2026-05-07 02:11 36.74796 -84.74527 39043 ft 583 kts 65°
2026-05-07 02:11 36.77668 -84.65069 39048 ft 582 kts 65°
2026-05-07 02:12 36.80536 -84.55599 39029 ft 583 kts 65°
2026-05-07 02:12 36.83393 -84.46143 39011 ft 582 kts 65°
2026-05-07 02:13 36.86252 -84.36674 39003 ft 582 kts 65°
2026-05-07 02:13 36.89078 -84.27269 39003 ft 581 kts 65°
2026-05-07 02:14 36.91916 -84.17790 39008 ft 581 kts 65°
2026-05-07 02:14 36.94269 -84.09909 39006 ft 582 kts 65°
2026-05-07 02:15 36.97545 -83.98886 39010 ft 582 kts 65°
2026-05-07 02:15 36.99891 -83.90937 39017 ft 582 kts 65°
2026-05-07 02:16 37.02681 -83.81451 39013 ft 581 kts 65°
2026-05-07 02:16 37.05469 -83.71935 39018 ft 581 kts 65°
2026-05-07 02:17 37.08237 -83.62490 39007 ft 581 kts 65°
2026-05-07 02:17 37.11008 -83.52968 39016 ft 582 kts 65°
2026-05-07 02:18 37.13776 -83.43423 39006 ft 582 kts 65°
2026-05-07 02:18 37.16537 -83.33876 38995 ft 582 kts 65°
2026-05-07 02:19 37.19291 -83.24323 39000 ft 582 kts 65°
2026-05-07 02:19 37.22027 -83.14797 39000 ft 581 kts 65°
2026-05-07 02:20 37.24741 -83.05312 39007 ft 581 kts 65°
2026-05-07 02:20 37.27472 -82.95747 39007 ft 581 kts 65°
2026-05-07 02:21 37.30186 -82.86206 39010 ft 580 kts 65°
2026-05-07 02:21 37.32893 -82.76662 39031 ft 579 kts 65°
2026-05-07 02:22 37.35589 -82.67124 39032 ft 579 kts 65°
2026-05-07 02:22 37.38273 -82.57581 39028 ft 578 kts 65°
2026-05-07 02:23 37.40946 -82.48045 39045 ft 578 kts 65°
2026-05-07 02:23 37.43614 -82.38500 39047 ft 578 kts 65°
2026-05-07 02:24 37.46277 -82.28944 39003 ft 578 kts 65°
2026-05-07 02:24 37.48928 -82.19385 38995 ft 579 kts 65°
2026-05-07 02:25 37.51559 -82.09875 39008 ft 578 kts 65°
2026-05-07 02:25 37.54208 -82.00305 39007 ft 578 kts 65°
2026-05-07 02:26 37.56850 -81.90720 39040 ft 578 kts 65°
2026-05-07 02:26 37.59479 -81.81153 39047 ft 577 kts 65°
2026-05-07 02:27 37.62089 -81.71574 39053 ft 577 kts 65°
2026-05-07 02:27 37.64686 -81.61988 39071 ft 577 kts 66°
2026-05-07 02:28 37.67275 -81.52395 39086 ft 577 kts 66°
2026-05-07 02:28 37.69858 -81.42800 39081 ft 577 kts 66°
2026-05-07 02:29 37.72418 -81.33254 39061 ft 577 kts 66°
2026-05-07 02:29 37.74982 -81.23649 39054 ft 577 kts 66°
2026-05-07 02:30 37.77540 -81.14038 39034 ft 576 kts 66°
2026-05-07 02:30 37.80481 -81.04672 39039 ft 568 kts 58°
2026-05-07 02:31 37.83862 -80.95692 39043 ft 565 kts 57°
2026-05-07 02:31 37.87141 -80.86629 39034 ft 565 kts 59°
2026-05-07 02:32 37.90339 -80.77544 39026 ft 563 kts 58°
2026-05-07 02:32 37.93538 -80.68552 39017 ft 562 kts 58°
2026-05-07 02:33 37.96751 -80.59511 39007 ft 562 kts 58°
2026-05-07 02:33 37.99947 -80.50479 39000 ft 561 kts 58°
2026-05-07 02:34 38.03131 -80.41437 38987 ft 560 kts 59°
2026-05-07 02:34 38.06300 -80.32411 39000 ft 560 kts 59°
2026-05-07 02:35 38.09471 -80.23368 38986 ft 560 kts 58°
2026-05-07 02:35 38.12672 -80.14352 38990 ft 560 kts 58°
2026-05-07 02:36 38.15887 -80.05320 38534 ft 562 kts 58°
2026-05-07 02:36 38.17462 -80.00873 38115 ft 557 kts 59°
2026-05-07 02:36 38.19060 -79.96341 37645 ft 552 kts 59°
2026-05-07 02:37 38.20604 -79.91957 37201 ft 547 kts 59°
2026-05-07 02:37 38.22149 -79.87564 36756 ft 543 kts 59°
2026-05-07 02:37 38.23707 -79.83136 36294 ft 538 kts 59°
2026-05-07 02:37 38.25207 -79.78872 35838 ft 534 kts 59°
2026-05-07 02:38 38.26712 -79.74572 35386 ft 530 kts 59°
2026-05-07 02:38 38.28204 -79.70302 34941 ft 528 kts 60°
2026-05-07 02:38 38.29681 -79.66031 34470 ft 525 kts 60°
2026-05-07 02:38 38.31139 -79.61787 34037 ft 522 kts 60°
2026-05-07 02:39 38.32587 -79.57557 33591 ft 520 kts 60°
2026-05-07 02:39 38.34029 -79.53346 33131 ft 519 kts 61°
2026-05-07 02:39 38.35468 -79.49142 32688 ft 516 kts 61°
2026-05-07 02:39 38.36896 -79.44965 32317 ft 512 kts 61°
2026-05-07 02:40 38.38315 -79.40813 31878 ft 510 kts 62°
2026-05-07 02:40 38.39726 -79.36678 31452 ft 507 kts 62°
2026-05-07 02:40 38.41130 -79.32561 30910 ft 507 kts 62°
2026-05-07 02:40 38.42527 -79.28341 29901 ft 530 kts 69°
2026-05-07 02:41 38.43521 -79.23745 29208 ft 537 kts 78°
2026-05-07 02:41 38.44248 -79.19102 28889 ft 533 kts 79°
2026-05-07 02:41 38.44947 -79.14458 28510 ft 533 kts 78°
2026-05-07 02:41 38.45700 -79.09819 28135 ft 531 kts 77°
2026-05-07 02:42 38.46494 -79.05238 27735 ft 527 kts 77°
2026-05-07 02:42 38.47299 -79.00697 27361 ft 522 kts 76°
2026-05-07 02:42 38.48091 -78.96201 26521 ft 522 kts 76°
2026-05-07 02:42 38.48892 -78.91616 24812 ft 533 kts 76°
2026-05-07 02:43 38.49692 -78.86993 23233 ft 532 kts 76°
2026-05-07 02:43 38.50469 -78.82400 21922 ft 525 kts 77°
2026-05-07 02:43 38.51161 -78.78001 21751 ft 490 kts 77°
2026-05-07 02:43 38.51798 -78.73855 21547 ft 462 kts 77°
2026-05-07 02:44 38.52410 -78.69908 21384 ft 451 kts 77°
2026-05-07 02:44 38.53026 -78.65977 21225 ft 451 kts 77°
2026-05-07 02:44 38.53654 -78.62018 21088 ft 456 kts 77°
2026-05-07 02:44 38.54291 -78.58040 21032 ft 459 kts 77°
2026-05-07 02:45 38.54930 -78.54050 20963 ft 457 kts 77°
2026-05-07 02:45 38.55559 -78.50095 20843 ft 451 kts 77°
2026-05-07 02:45 38.56175 -78.46212 20552 ft 441 kts 77°
2026-05-07 02:45 38.56778 -78.42396 20159 ft 434 kts 77°
2026-05-07 02:46 38.57375 -78.38642 19735 ft 428 kts 76°
2026-05-07 02:46 38.58007 -78.34949 19289 ft 423 kts 75°
2026-05-07 02:46 38.58650 -78.31321 18849 ft 413 kts 75°
2026-05-07 02:46 38.59268 -78.27803 18481 ft 399 kts 75°
2026-05-07 02:47 38.59872 -78.24405 18146 ft 386 kts 72°
2026-05-07 02:47 38.60743 -78.21219 17754 ft 375 kts 63°
2026-05-07 02:47 38.61787 -78.18195 17392 ft 369 kts 61°
2026-05-07 02:47 38.62824 -78.15223 17034 ft 365 kts 62°
2026-05-07 02:48 38.63823 -78.12238 16654 ft 363 kts 63°
2026-05-07 02:48 38.64795 -78.09255 16283 ft 362 kts 64°
2026-05-07 02:48 38.65752 -78.06285 15911 ft 362 kts 64°
2026-05-07 02:48 38.66710 -78.03301 15545 ft 362 kts 65°
2026-05-07 02:49 38.67666 -78.00317 15175 ft 362 kts 65°
2026-05-07 02:49 38.68617 -77.97345 14810 ft 361 kts 65°
2026-05-07 02:49 38.69568 -77.94377 14441 ft 359 kts 65°
2026-05-07 02:49 38.70497 -77.91477 14065 ft 355 kts 65°
2026-05-07 02:50 38.71437 -77.88539 13704 ft 349 kts 65°
2026-05-07 02:50 38.72346 -77.85693 13340 ft 343 kts 65°
2026-05-07 02:50 38.73285 -77.82903 12993 ft 338 kts 58°
2026-05-07 02:50 38.74665 -77.80575 12655 ft 329 kts 43°
2026-05-07 02:51 38.76212 -77.78424 12323 ft 328 kts 42°
2026-05-07 02:51 38.77756 -77.76279 11972 ft 327 kts 43°
2026-05-07 02:51 38.79279 -77.74122 11636 ft 326 kts 44°
2026-05-07 02:51 38.80788 -77.71956 11301 ft 326 kts 44°
2026-05-07 02:52 38.82268 -77.69695 10949 ft 329 kts 54°
2026-05-07 02:52 38.83320 -77.67122 10648 ft 330 kts 63°
2026-05-07 02:52 38.84256 -77.64441 10318 ft 329 kts 65°
2026-05-07 02:52 38.85177 -77.61772 9990 ft 324 kts 65°
2026-05-07 02:53 38.86085 -77.59177 9662 ft 314 kts 64°
2026-05-07 02:53 38.86984 -77.56657 9361 ft 309 kts 64°
2026-05-07 02:53 38.87886 -77.54157 9066 ft 309 kts 64°
2026-05-07 02:53 38.88791 -77.51659 8777 ft 310 kts 64°
2026-05-07 02:54 38.89699 -77.49154 8480 ft 309 kts 64°
2026-05-07 02:54 38.90489 -77.46600 8150 ft 308 kts 79°
2026-05-07 02:54 38.90458 -77.43899 7851 ft 302 kts 105°
2026-05-07 02:54 38.89668 -77.41433 7543 ft 295 kts 123°
2026-05-07 02:55 38.88663 -77.39157 7223 ft 293 kts 124°
2026-05-07 02:55 38.87648 -77.36895 6902 ft 292 kts 124°
2026-05-07 02:55 38.86647 -77.34633 6571 ft 291 kts 123°
2026-05-07 02:55 38.85657 -77.32373 6255 ft 289 kts 123°
2026-05-07 02:56 38.84677 -77.30135 6028 ft 286 kts 123°
2026-05-07 02:56 38.83685 -77.27918 5787 ft 286 kts 124°
2026-05-07 02:56 38.82697 -77.25729 5585 ft 281 kts 123°
2026-05-07 02:56 38.81725 -77.23577 5376 ft 278 kts 123°
2026-05-07 02:57 38.80765 -77.21439 5184 ft 276 kts 123°
2026-05-07 02:57 38.79822 -77.19345 4990 ft 276 kts 123°
2026-05-07 02:57 38.78843 -77.17180 4792 ft 278 kts 123°
2026-05-07 02:57 38.77884 -77.15060 4598 ft 278 kts 123°
2026-05-07 02:58 38.76859 -77.12978 4384 ft 275 kts 135°
2026-05-07 02:58 38.75340 -77.11620 4217 ft 262 kts 163°
2026-05-07 02:58 38.73594 -77.11176 4045 ft 255 kts 181°
2026-05-07 02:58 38.71817 -77.11078 3876 ft 256 kts 182°
2026-05-07 02:59 38.70052 -77.10996 3688 ft 252 kts 182°
2026-05-07 02:59 38.68317 -77.10913 3509 ft 246 kts 182°
2026-05-07 02:59 38.66615 -77.10827 3341 ft 245 kts 181°
2026-05-07 02:59 38.64910 -77.10734 3173 ft 246 kts 181°
2026-05-07 03:00 38.63198 -77.10642 3041 ft 246 kts 181°
2026-05-07 03:00 38.62069 -77.10603 3000 ft 245 kts 184°
2026-05-07 03:00 38.60424 -77.10227 2959 ft 239 kts 154°
2026-05-07 03:00 38.59346 -77.08730 2971 ft 229 kts 115°
2026-05-07 03:01 38.59190 -77.06781 2993 ft 214 kts 88°
2026-05-07 03:01 38.59285 -77.04918 2985 ft 207 kts 88°
2026-05-07 03:01 38.59764 -77.03212 2968 ft 208 kts 45°
2026-05-07 03:01 38.61014 -77.02422 2985 ft 203 kts 359°
2026-05-07 03:02 38.62426 -77.02407 2926 ft 208 kts 355°
2026-05-07 03:02 38.63896 -77.02363 2681 ft 209 kts 360°
2026-05-07 03:02 38.65323 -77.02273 2564 ft 200 kts
2026-05-07 03:02 38.66678 -77.02165 2498 ft 191 kts
2026-05-07 03:03 38.67977 -77.02069 2456 ft 182 kts 359°
2026-05-07 03:03 38.69235 -77.02159 2325 ft 181 kts 355°
2026-05-07 03:03 38.70486 -77.02295 2222 ft 181 kts 355°
2026-05-07 03:03 38.71720 -77.02420 2085 ft 170 kts 352°
2026-05-07 03:04 38.72840 -77.02533 1926 ft 156 kts 355°
2026-05-07 03:04 38.73891 -77.02640 1819 ft 155 kts 356°
2026-05-07 03:04 38.75023 -77.02752 1838 ft 164 kts 354°
2026-05-07 03:04 38.76103 -77.02861 1619 ft 146 kts 352°
2026-05-07 03:05 38.77057 -77.02957 1435 ft 130 kts 353°
2026-05-07 03:05 38.77940 -77.03048 1277 ft 125 kts 353°
2026-05-07 03:05 38.78797 -77.03142 1111 ft 123 kts 355°
2026-05-07 03:05 38.79650 -77.03210 948 ft 122 kts 355°
2026-05-07 03:06 38.80511 -77.03295 764 ft 127 kts 356°
2026-05-07 03:06 38.81387 -77.03388 637 ft 127 kts 354°
2026-05-07 03:06 38.82272 -77.03482 500 ft 129 kts 355°
2026-05-07 03:06 38.83165 -77.03569 305 ft 127 kts 355°
2026-05-07 03:07 38.84048 -77.03666 83 ft 128 kts 355°
2026-05-07 03:07 38.84845 -77.03748 24 ft 73 kts 355°
2026-05-07 03:07 38.85165 -77.03778 24 ft 30 kts 353°
2026-05-07 03:07 38.85238 -77.03910 23 ft 20 kts 210°
2026-05-07 03:08 38.85116 -77.03972 23 ft 19 kts 180°
2026-05-07 03:08 38.84986 -77.03964 25 ft 19 kts 176°
2026-05-07 03:08 38.84860 -77.03948 23 ft 18 kts 175°
2026-05-07 03:08 38.84741 -77.03971 23 ft 17 kts 211°
2026-05-07 03:09 38.84634 -77.04037 27 ft 17 kts 209°
2026-05-07 03:09 38.84581 -77.04159 23 ft 16 kts 260°
2026-05-07 03:09 38.84564 -77.04297 25 ft 15 kts 271°
2026-05-07 03:09 38.84627 -77.04381 23 ft 8 kts
2026-05-07 03:10 38.84648 -77.04328 23 ft 3 kts 60°
2026-05-07 03:10 38.84650 -77.04324 23 ft 1 kts 61°